Regional Weather Roundup
Issued by NWS

Home | Current Version | Previous Version | Text Only | Print | Product List | Glossary On
Versions: 1 2 3 4 5 6 7 8 9 10 11 12 13 14 15 16 17 18 19 20 21 22 23 24 25 26 27 28 29 30 31 32 33 34 35 36 37 38 39 40 41 42 43 44 45 46 47 48 49 50
000
ASUS45 KPSR 200910
RWRAZ

ARIZONA REGIONAL HOURLY WEATHER ROUNDUP
NATIONAL WEATHER SERVICE PHOENIX AZ
200 AM MST MON OCT 20 2014

NOTE: FAIR INDICATES FEW OR NO CLOUDS BELOW 12,000 FEET WITH NO
SIGNIFICANT WEATHER AND/OR OBSTRUCTIONS TO VISIBILITY.

AZZ001>003-036-201000-
NORTHWEST ARIZONA

CITY           SKY/WX    TMP DP  RH WIND       PRES   REMARKS
BULLHEAD CITY  CLEAR     73  43  33 CALM      29.83R
KINGMAN        CLEAR     55  43  63 SE9       29.98R
$$

AZZ004>008-015-016-018-201000-
NORTH CENTRAL ARIZONA

CITY           SKY/WX    TMP DP  RH WIND       PRES   REMARKS
GRAND CANYON   CLEAR     39  33  79 CALM      30.17S
PRESCOTT       PTCLDY    49  42  77 SW6       30.08R
FLAGSTAFF      CLEAR     36  33  89 CALM      30.19R
PAYSON         CLEAR     54  41  62 E3        30.11S
$$

AZZ009>014-017-201000-
NORTHEAST ARIZONA

CITY           SKY/WX    TMP DP  RH WIND       PRES   REMARKS
WINSLOW        CLEAR     49  42  77 CALM      30.11S
SAINT JOHNS    PTCLDY    42  41  96 CALM      30.12S
WINDOW ROCK    MOCLDY    40  36  86 CALM      30.21F
SHOW LOW       MOCLDY    43  36  75 CALM      30.17S
$$

AZZ023-201000-
GREATER PHOENIX AREA

CITY           SKY/WX    TMP DP  RH WIND       PRES   REMARKS
PHOENIX        PTCLDY    70  55  59 CALM      29.87R
BUCKEYE          N/A     70  50  49 E6        29.87S
LUKE AFB       CLEAR     65  58  79 N6        29.88R
DEER VALLEY    CLEAR     71  49  45 NE7       29.88S
SCOTTSDALE     CLEAR     68  53  58 W5        29.89S
MESA-GATEWAY   CLEAR     64  52  63 CALM      29.90S
$$

AZZ027-028-201000-
SOUTHWEST MARICOPA COUNTY AND PINAL COUNTY

CITY           SKY/WX    TMP DP  RH WIND       PRES   REMARKS
CASA GRANDE    CLEAR     68  48  49 E6        29.89S
$$

AZZ503-504-507>509-201000-
SOUTHEAST ARIZONA

CITY           SKY/WX    TMP DP  RH WIND       PRES   REMARKS
TUCSON         CLEAR     65  49  56 E13       29.95R
DAVIS-MONTHAN  PTCLDY    64  48  56 SE10      29.93S
NOGALES        CLEAR     53  46  77 N7        29.99S
SIERRA VISTA   CLEAR     54  46  76 SE8       30.05S
DOUGLAS        CLEAR     55  47  74 CALM      30.04S
SAFFORD        CLEAR     56  51  84 SE8       30.02S
$$

AZZ020-021-025-026-031-201000-
SOUTHWEST ARIZONA

CITY           SKY/WX    TMP DP  RH WIND       PRES   REMARKS
YUMA           CLEAR     77  64  64 SE6       29.80R
$$

CAZ031-033-041-043-047-048-061-201000-
SOUTHERN CALIFORNIA

CITY           SKY/WX    TMP DP  RH WIND       PRES   REMARKS
DOWNTOWN L.A.  PTCLDY    66  61  84 CALM      29.89R
L.A. AIRPORT   PTCLDY    66  62  87 SW3       29.89S
SAN DIEGO      PTCLDY    67  60  78 CALM      29.90R
BURBANK        PTCLDY    63  59  87 N3        29.90S FOG
ONTARIO        CLEAR     62  57  83 W3        29.90S
RIVERSIDE      CLEAR     63  57  81 CALM      29.90S
PALM SPRINGS   CLEAR     74  55  51 NW3       29.82S
EL CENTRO NAS  CLEAR     73  49  42 NW10      29.77S
IMPERIAL       CLEAR     74  52  46 NW5       29.77S
BLYTHE         CLEAR     75  49  39 S8        29.80R
NEEDLES        CLEAR     73  40  30 NW7       29.83R
$$

NVZ020-UTZ003-201000-
SOUTHERN NEVADA-UTAH

CITY           SKY/WX    TMP DP  RH WIND       PRES   REMARKS
LAS VEGAS      CLEAR     69  37  30 SW7       29.85S
SALT LAKE CITY CLEAR     51  39  63 SE9       30.02S
$$

NMZ009-TXZ055-201000-
NEW MEXICO-WEST TEXAS

CITY           SKY/WX    TMP DP  RH WIND       PRES   REMARKS
ALBUQUERQUE    PTCLDY    52  41  66 S8        30.18R
EL PASO        MOCLDY    62  53  72 NW6       30.07F
$$


........................KEY........................
SKY/WX - SKY CONDITION/WEATHER
TMP    - TEMPERATURE IN FAHRENHEIT
DP     - DEW POINT IN FAHRENHEIT
RH     - RELATIVE HUMIDITY IN PERCENT
WIND   - DIRECTION AND SPEED IN MILES PER HOUR (MPH)
VRB    - VARIABLE WIND DIRECTION
PRES   - MEAN SEA LEVEL PRESSURE IN INCHES OF MERCURY
         F - FALLING PRESSURE   R - RISING PRESSURE
         S - STEADY PRESSURE
VSB    - VISIBILITY IN MILES
HX     - HEAT INDEX IN FAHRENHEIT
WCI    - WIND CHILL INDEX IN FAHRENHEIT
TC     - TEMPERATURE IN CELSIUS WHICH IS ALSO KNOWN AS
         TEMPERATURE IN CENTIGRADE
AFB    - AIR FORCE BASE
         LUKE AFB IS LUKE AIR FORCE BASE
         DAVIS-MONTHAN IS DAVIS-MONTHAN AIR FORCE BASE
NAS    - NAVAL AIR STATION
         EL CENTRO NAS IS EL CENTRO NAVAL AIR STATION
N/A    - NOT AVAILABLE


USA.gov is the U.S. government's official web portal to all federal, state and local government web resources and services.